Weather History for Homestead AFB, FL

Change the Weather History Date:

Sunday, May 6, 2012

  Actual Average Record
Temperature  
Mean Temperature 78 °F -  
Max Temperature 86 °F 85 °F 96 °F (1955)
Min Temperature 70 °F 65 °F 50 °F (1963)
Cooling Degree Days 12    
Growing Degree Days 28 (Base 50)    
Moisture  
Dew Point 69 °F    
Average Humidity 75    
Maximum Humidity 92    
Minimum Humidity 56    
Precipitation  
Precipitation 0.00 in - - ()
Sea Level Pressure  
Sea Level Pressure 29.98 in    
Wind  
Wind Speed 4 mph (SSE)    
Max Wind Speed 12 mph    
Max Gust Speed -    
Visibility 10 miles    
Events      
Averages and records for this station are not official NWS values.
T = Trace of Precipitation, MM = Missing Value Source: NWS Daily Summary

Daily Weather History Graph

Daily Weather History Graph

Search for Another Location

Airport:

Trip Planner

Search our weather history database for the weather conditions in past years. The results will help you decide how hot, cold, wet, or windy it might be!

Date:

Astronomy

May. 06, 2012 Rise Set
Actual Time 6:41 AM EDT 7:55 PM EDT
Civil Twilight 6:16 AM EDT 8:19 PM EDT
Nautical Twilight 5:47 AM EDT 8:48 PM EDT
Astronomical Twilight 5:18 AM EDT 9:18 PM EDT
Moon 8:51 PM EDT (5/6) 6:55 AM EDT (5/6)
Length of Visible Light 14h 02m
Length of Day
13h 13m
Full, 100% of the Moon is Illuminated
May 6
Full
May 12
Last Quarter
May 20
New
May 28
First Quarter
Jun 4
Full

Hourly Weather History & Observations

Time (EDT) Temp. Heat Index Dew Point Humidity Pressure Visibility Wind Dir Wind Speed Gust Speed Precip Events Conditions
12:55 AM 74.1 °F - 69.1 °F 84% 30.00 in 10.0 mi SE 5.8 mph - N/A   Partly Cloudy
1:55 AM 74.3 °F - 69.4 °F 85% 29.98 in 10.0 mi SE 4.6 mph - N/A   Clear
2:55 AM 73.2 °F - 69.3 °F 87% 29.96 in 10.0 mi SSE 3.5 mph - N/A   Clear
3:55 AM 72.5 °F - 70.0 °F 92% 29.96 in 10.0 mi Calm Calm - N/A   Clear
4:55 AM 72.9 °F - 69.3 °F 88% 29.95 in 10.0 mi Calm Calm - N/A   Clear
5:55 AM 71.4 °F - 68.4 °F 90% 29.96 in 10.0 mi Calm Calm - N/A   Clear
6:29 AM 71.6 °F - 68.0 °F 88% 29.97 in 1.8 mi NNW 3.5 mph - N/A   Clear
6:32 AM 71.6 °F - 68.0 °F 88% 29.97 in 1.0 mi NNW 3.5 mph - N/A   Clear
6:55 AM 70.7 °F - 67.6 °F 90% 29.98 in 10.0 mi Calm Calm - N/A   Clear
7:55 AM 73.0 °F - 69.4 °F 88% 30.00 in 10.0 mi Calm Calm - N/A   Clear
8:27 AM 77.0 °F - 69.8 °F 78% 30.00 in 10.0 mi Calm Calm - N/A   Light Drizzle
8:32 AM 77.0 °F - 69.8 °F 78% 30.00 in 10.0 mi Calm Calm - N/A   Clear
8:40 AM 77.0 °F - 69.8 °F 78% 30.00 in 10.0 mi Calm Calm - N/A   Light Drizzle
8:49 AM 77.0 °F - 69.8 °F 78% 30.01 in 10.0 mi Calm Calm - N/A   Clear
8:55 AM 77.7 °F - 70.0 °F 77% 30.01 in 10.0 mi Calm Calm - 0.00 in   Clear
9:14 AM 78.8 °F - 69.8 °F 74% 30.01 in 10.0 mi Calm Calm - N/A   Light Drizzle
9:16 AM 78.8 °F - 69.8 °F 74% 30.01 in 10.0 mi Calm Calm - N/A   Clear
9:55 AM 80.4 °F 83.4 °F 69.1 °F 68% 30.02 in 10.0 mi SSE 6.9 mph - 0.00 in   Partly Cloudy
10:33 AM 82.4 °F 85.4 °F 68.0 °F 62% 30.02 in 10.0 mi SE 9.2 mph - N/A   Light Drizzle
10:43 AM 82.4 °F 85.4 °F 68.0 °F 62% 30.02 in 10.0 mi SE 8.1 mph - N/A   Clear
10:55 AM 82.8 °F 85.8 °F 68.0 °F 61% 30.02 in 10.0 mi Variable 5.8 mph - 0.00 in   Clear
11:55 AM 83.7 °F 86.7 °F 67.8 °F 59% 30.01 in 10.0 mi SE 9.2 mph - N/A   Partly Cloudy
12:55 PM 84.7 °F 87.9 °F 68.2 °F 57% 30.00 in 10.0 mi South 9.2 mph - N/A   Clear
1:55 PM 84.9 °F 88.8 °F 69.1 °F 59% 29.98 in 10.0 mi SSE 10.4 mph - N/A   Partly Cloudy
2:55 PM 85.5 °F 88.8 °F 68.2 °F 56% 29.97 in 10.0 mi SSE 9.2 mph - N/A   Clear
3:55 PM 85.1 °F 88.2 °F 67.6 °F 56% 29.95 in 10.0 mi South 9.2 mph - N/A   Partly Cloudy
4:55 PM 84.9 °F 88.2 °F 68.2 °F 57% 29.94 in 10.0 mi South 11.5 mph - N/A   Clear
5:55 PM 83.8 °F 87.0 °F 68.0 °F 59% 29.93 in 10.0 mi South 9.2 mph - N/A   Clear
6:55 PM 82.4 °F 86.3 °F 69.8 °F 66% 29.93 in 10.0 mi South 8.1 mph - N/A   Clear
7:55 PM 78.8 °F - 69.3 °F 72% 29.94 in 10.0 mi South 8.1 mph - N/A   Clear
8:55 PM 75.2 °F - 69.8 °F 83% 29.95 in 10.0 mi South 4.6 mph - N/A   Clear
9:55 PM 74.7 °F - 70.9 °F 88% 29.96 in 10.0 mi Calm Calm - N/A   Clear
10:55 PM 73.8 °F - 69.6 °F 87% 29.97 in 10.0 mi Calm Calm - N/A   Clear
11:55 PM 73.4 °F - 69.3 °F 87% 29.97 in 10.0 mi Calm Calm - N/A   Clear